Probability
0 0 0 0 1 0 0 0 0 0 0 0 0 0 0 0 0 0 0 0 0 0 0 0 0 0 0 1 2 3 3 2 1 0 1 2 3 3 3 3 2 2 2
0 0 0 1 1 1 1 0 0 0 0 0 0 0 0 0 0 0 0 0 0 0 0 0 0 0 0 0 1 2 3 2 1 0 0 1 2 3 3 3 2 2 1
0 0 0 1 2 2 2 1 0 0 0 0 0 0 0 0 0 0 0 0 0 0 0 0 0 0 0 0 0 1 3 2 1 0 0 0 1 1 2 3 3 2 2
0 0 0 0 1 1 2 2 1 0 0 0 0 0 0 0 0 0 0 0 0 0 0 0 0 0 0 0 0 1 2 2 1 0 0 0 0 0 1 2 3 3 4
0 0 0 0 0 0 1 1 1 0 0 0 0 0 0 0 0 0 0 0 0 0 0 0 0 0 0 0 0 0 1 1 1 0 0 0 0 0 0 1 3 3 4
0 0 0 0 0 0 0 0 0 0 0 0 0 0 0 0 0 0 0 0 0 0 0 0 0 0 0 0 0 0 0 0 0 0 0 0 0 0 0 1 2 3 3
0 0 0 0 0 0 0 0 0 0 0 0 0 0 0 0 0 0 0 0 0 0 0 0 0 0 0 0 0 0 0 0 0 0 0 0 0 0 0 0 1 1 2
0 0 0 0 0 0 0 0 0 0 0 0 0 0 0 0 0 0 0 0 0 0 0 0 0 0 0 0 0 0 0 0 0 0 0 0 0 0 0 0 0 0 1
0 0 0 0 0 0 0 0 0 0 0 0 0 0 0 0 0 0 0 0 0 0 0 0 0 0 0 0 0 0 0 0 0 0 0 0 0 0 0 0 0 0 0
0 0 0 0 0 0 0 0 0 0 0 0 0 0 0 0 0 0 0 0 0 0 0 0 0 0 0 0 0 0 0 0 0 0 0 0 0 0 0 0 0 0 0
0 0 0 0 0 0 0 0 0 0 0 0 0 0 0 0 0 0 0 0 0 0 0 0 0 0 0 0 0 0 0 0 0 0 0 0 0 0 0 0 0 0 0
0 0 0 0 0 0 0 0 0 0 0 0 0 0 0 0 0 0 0 0 0 0 0 0 0 0 0 0 0 0 0 0 0 0 0 0 0 0 0 0 0 0 0
0 0 0 0 0 0 0 0 0 0 0 0 0 0 0 0 0 0 0 0 0 0 0 0 0 0 0 0 0 0 0 0 0 0 0 0 0 0 0 0 0 0 0
0 0 0 0 0 0 0 0 0 0 0 0 0 0 0 0 0 0 0 0 0 0 0 0 0 0 0 0 0 0 0 0 0 0 0 0 0 0 0 0 0 0 0
0 0 0 0 0 0 0 0 0 0 0 0 0 0 0 0 0 0 0 0 0 0 0 0 0 0 0 0 0 0 0 0 0 0 0 0 0 0 0 0 0 0 0
0 0 0 0 0 0 0 0 0 0 0 0 0 0 0 0 0 0 0 0 0 0 0 0 0 0 0 0 0 0 0 0 0 0 0 0 0 0 0 0 0 0 0
0 0 0 0 0 0 0 0 0 0 0 0 0 0 0 0 0 0 0 0 0 0 0 0 0 0 0 0 0 0 0 0 0 0 0 0 0 0 0 0 0 0 0
0 0 0 0 0 0 0 0 0 0 0 0 0 0 0 0 0 0 0 0 0 0 0 0 0 0 0 0 0 0 0 0 0 0 0 0 0 0 0 0 0 0 0
0 0 0 0 0 0 0 0 0 0 0 0 0 0 0 0 0 0 0 0 0 0 0 0 0 0 0 0 0 0 0 0 0 0 0 0 0 0 0 0 0 0 0
0 0 0 0 0 0 0 0 0 0 0 0 0 0 0 0 0 0 0 0 0 0 0 0 0 0 0 0 0 0 0 0 0 0 0 0 0 0 0 0 0 0 0
0 0 0 0 0 0 0 0 0 0 0 0 0 0 0 0 0 0 0 0 0 0 0 0 0 0 0 0 0 0 0 0 0 0 0 0 0 0 0 0 0 0 0
0 0 0 0 0 0 0 0 0 0 0 0 0 0 0 0 0 0 0 0 0 0 0 0 0 0 0 0 0 0 0 0 0 0 0 0 0 0 0 0 0 0 0
0 0 0 0 0 0 0 0 0 0 0 0 0 0 0 0 0 0 0 0 0 0 0 0 0 0 0 0 0 0 0 0 0 0 0 0 0 0 0 0 0 0 0
0 0 0 0 0 0 0 0 0 0 0 0 0 0 0 0 0 0 0 0 0 0 0 0 0 0 0 0 0 0 0 0 0 0 0 0 0 0 0 0 0 0 0
0 0 0 0 0 0 0 0 0 0 0 0 0 0 0 0 0 0 0 0 0 0 0 0 0 0 0 0 0 0 0 0 0 0 0 0 0 0 0 0 0 0 0
0 0 0 0 0 0 0 0 0 0 0 0 0 0 0 0 0 0 0 0 0 0 0 0 0 0 0 0 0 0 0 0 0 0 0 0 0 0 0 0 0 0 0
Wind_Speed
2 2 1 2 2 1 2 2 2 2 2 2 2 2 2 2 2 2 3 7 8 9 9 10 10 11 11 11 11 11 11 11 11 12 12 12 12 12 13 13 14 14 15
2 2 1 1 1 1 1 1 1 1 1 1 2 2 2 2 2 2 2 4 7 9 9 10 11 12 13 13 13 12 12 13 13 13 13 13 13 13 14 14 15 15 16
2 2 1 1 1 1 1 1 2 2 2 2 3 3 2 2 2 3 3 2 3 7 10 11 12 13 14 14 14 14 13 13 13 14 14 14 14 15 15 15 16 17 17
2 2 1 1 1 1 1 1 1 2 2 2 3 3 3 2 3 3 3 3 2 3 6 11 13 14 14 15 15 15 14 14 14 14 15 15 15 15 15 15 16 16 17
2 2 1 1 1 1 1 2 2 1 2 3 3 3 3 3 3 3 3 3 3 4 4 8 12 14 15 15 16 16 16 15 15 15 16 16 16 16 16 17 17 17 18
2 2 1 1 1 1 2 2 2 2 2 3 4 4 3 3 3 3 3 3 4 4 4 5 5 8 14 16 17 17 17 16 16 16 17 17 17 17 18 18 18 18 19
2 2 1 1 1 1 1 1 2 2 3 2 2 4 3 3 3 3 3 3 4 4 4 5 4 4 6 13 16 17 18 18 17 17 17 18 18 19 19 19 19 19 20
1 1 1 1 1 1 1 2 1 1 2 2 1 3 4 4 3 4 3 3 4 4 5 6 5 5 5 5 10 17 18 19 19 18 18 19 19 19 20 20 20 20 21
1 1 1 0 1 0 1 1 1 1 2 2 0 0 1 4 5 3 4 4 4 4 5 5 6 6 6 5 6 11 16 19 20 19 19 19 20 20 20 21 21 21 21
0 0 0 0 0 0 1 2 1 1 1 2 2 1 2 3 3 6 4 3 5 6 6 6 6 6 6 6 8 13 16 18 19 19 19 20 20 21 21 21 21 21 21
0 0 0 0 1 1 1 2 2 2 1 2 2 2 3 3 3 4 8 7 5 4 5 6 5 5 6 6 6 10 16 18 19 18 19 20 21 21 21 21 21 21 21
1 1 1 1 1 1 2 2 2 2 2 3 3 2 3 3 3 4 6 8 8 6 6 5 5 5 5 5 8 14 16 17 18 18 19 20 20 21 21 21 22 22 22
1 2 1 1 2 2 2 2 2 3 3 3 4 4 3 4 4 4 5 7 8 7 5 4 4 4 5 5 6 14 15 17 18 18 19 19 19 20 20 21 22 22 22
2 2 2 2 2 2 3 2 2 3 3 3 5 5 4 4 4 4 4 5 8 7 5 6 3 4 4 5 8 14 10 16 17 18 18 18 18 18 18 19 20 20 20
2 2 2 2 2 3 3 3 3 4 4 4 4 5 5 4 4 4 4 4 5 8 9 6 4 4 4 5 10 8 7 14 17 18 17 17 17 17 16 17 18 19 19
2 2 2 2 3 3 3 3 3 4 4 4 4 5 5 5 4 4 4 4 5 6 9 6 5 6 6 7 11 8 8 16 16 17 17 17 17 16 16 17 18 18 18
2 2 2 3 3 3 3 3 4 4 5 5 5 5 6 6 5 4 4 4 5 5 8 8 5 6 6 8 9 7 7 7 8 15 16 16 16 15 15 15 16 16 15
2 3 2 3 3 4 3 4 5 5 5 6 6 6 7 6 6 5 4 5 5 5 6 10 8 6 7 8 8 8 8 7 6 12 14 14 14 14 14 15 15 14 14
2 2 2 3 4 4 4 4 5 5 5 6 6 7 7 7 7 6 6 5 5 5 5 7 8 6 6 6 7 8 8 6 6 9 11 12 12 13 14 14 14 13 13
3 3 3 4 4 4 5 5 5 5 6 6 6 7 7 7 8 8 6 6 5 6 5 6 7 6 6 6 5 6 7 5 6 6 8 9 11 12 13 14 14 13 11
3 3 3 4 4 4 4 5 5 5 6 6 6 6 7 9 11 9 7 6 5 5 5 6 6 6 6 6 5 5 7 6 6 4 5 5 6 5 7 10 11 11 10
3 3 3 4 4 5 8 10 7 5 5 6 7 7 7 8 10 13 13 12 9 7 6 6 6 7 8 7 6 6 5 6 6 3 4 6 4 5 5 5 9 10 9
3 3 4 4 5 7 10 10 10 5 5 5 6 6 7 8 10 7 10 12 10 11 10 7 7 8 8 7 7 7 6 5 6 4 4 5 4 5 5 6 10 9 9
3 3 4 4 5 7 11 11 11 5 5 5 6 6 7 8 7 8 7 7 6 6 7 6 6 7 7 7 6 6 6 6 5 3 2 4 5 4 5 4 8 9 9
3 3 4 4 5 7 11 12 10 4 4 6 6 6 7 7 11 12 7 6 6 6 7 8 9 10 11 11 8 4 4 3 4 4 2 2 3 4 3 3 5 9 10
3 4 4 4 5 6 10 11 10 3 4 5 5 5 8 9 11 11 6 5 6 6 6 6 7 8 7 7 8 4 3 3 3 3 2 2 2 3 3 3 3 4 5
Wind_Direction
88 69 58 47 35 31 32 19 15 10 6 356 348 346 330 322 322 327 324 328 330 331 330 328 325 322 319 315 313 308 304 301 299 298 297 295 294 291 290 289 288 286 282
105 87 67 50 30 22 21 23 9 2 344 336 330 322 310 311 315 315 315 321 328 331 331 329 326 322 318 316 312 309 308 304 302 301 298 295 293 293 291 288 287 286 283
108 100 76 44 3 7 19 19 8 7 350 339 323 310 304 302 308 302 304 308 314 324 326 325 323 320 317 314 313 309 307 307 306 303 300 298 294 290 287 287 287 286 284
107 94 77 34 360 21 20 7 3 356 338 327 311 301 303 299 296 294 297 304 306 308 316 319 319 317 316 314 312 310 305 304 304 303 300 297 296 295 292 290 289 288 287
103 100 86 26 24 32 14 352 358 341 325 321 304 297 299 295 291 294 296 297 297 299 301 312 317 317 316 314 312 312 307 303 302 301 300 299 296 293 292 290 288 287 287
97 91 78 35 36 37 10 358 340 334 313 308 310 309 298 288 288 284 284 294 301 301 304 304 303 308 313 314 313 311 309 301 299 298 298 297 295 294 291 289 289 287 285
90 85 65 36 34 37 354 347 339 336 330 328 335 323 310 294 289 281 283 289 297 297 296 295 292 293 300 308 310 308 308 303 301 298 297 295 294 293 293 289 288 287 286
82 80 79 47 28 24 1 350 353 337 330 354 356 336 329 323 302 292 288 283 289 293 295 299 293 291 293 291 297 305 306 302 299 297 296 294 293 293 292 291 288 286 286
79 91 99 66 8 33 306 308 304 323 313 322 350 157 311 293 307 285 273 279 286 293 291 291 289 290 292 291 291 298 303 301 298 297 297 296 294 293 292 291 290 288 286
79 63 71 14 311 313 293 290 302 278 272 301 310 259 233 247 285 301 298 281 284 285 283 292 291 286 285 285 288 300 306 304 299 299 298 297 294 293 293 292 291 290 288
321 308 273 289 290 294 287 294 301 288 266 262 268 277 283 276 251 267 293 303 299 277 276 276 277 281 286 285 285 293 304 307 302 301 300 297 295 294 293 293 293 292 290
305 301 306 288 282 288 286 281 279 280 274 271 267 258 258 265 268 264 278 294 297 293 286 274 270 275 280 283 290 302 304 305 302 302 301 299 296 294 293 293 295 292 289
287 282 303 291 290 287 287 287 285 281 274 275 270 265 259 257 259 265 276 287 291 293 287 275 260 270 285 286 288 298 300 302 302 303 301 299 296 293 292 293 293 291 288
243 250 267 279 286 291 298 292 288 281 284 275 281 277 272 269 262 258 263 284 298 295 287 281 276 264 276 283 290 295 294 301 303 305 304 302 301 299 295 294 294 293 292
251 254 265 275 284 289 291 293 290 289 289 278 275 279 278 276 271 265 258 256 274 293 294 288 288 281 287 288 292 291 289 297 302 303 306 305 303 301 300 301 299 296 295
248 254 269 276 284 289 290 290 290 292 295 289 282 286 286 282 281 272 262 262 258 268 283 287 286 292 295 299 300 299 290 299 301 303 305 307 306 303 304 304 303 300 295
247 249 260 272 280 284 286 288 288 290 292 296 295 291 288 290 284 279 275 269 268 266 279 290 286 293 292 295 301 298 289 286 291 299 304 306 307 309 310 311 312 310 308
248 251 261 271 278 285 284 281 286 291 288 292 291 289 288 293 291 283 275 272 272 267 272 289 296 297 293 293 294 297 300 299 293 301 307 309 309 313 314 315 317 315 313
260 266 267 270 277 281 282 281 278 282 281 282 285 285 287 290 290 287 280 277 277 277 269 280 290 291 293 295 299 299 297 294 301 304 310 316 316 318 318 320 323 320 316
260 265 270 271 276 281 280 278 281 282 283 282 282 282 282 280 280 283 281 276 279 282 278 278 285 292 294 296 298 302 308 310 308 309 314 316 318 321 322 326 329 327 326
280 273 278 282 283 282 276 284 283 285 288 292 292 288 286 288 290 288 289 286 281 280 284 286 289 295 299 307 304 299 301 310 306 303 316 318 319 319 320 325 331 335 334
295 293 284 282 285 288 296 299 302 287 290 293 295 297 298 293 297 299 297 295 293 287 286 286 290 293 297 299 300 301 303 311 308 318 321 313 322 319 322 328 337 340 341
295 296 291 286 283 289 301 303 304 298 283 280 284 292 299 301 306 296 293 294 292 291 287 284 283 285 290 292 296 297 297 297 291 305 319 306 320 318 321 332 344 352 356
285 286 289 290 291 295 306 308 307 296 281 279 281 283 287 293 297 299 296 292 290 291 290 284 274 280 285 288 282 281 281 289 291 297 309 297 312 313 321 329 347 1 9
292 287 286 290 295 300 309 311 312 291 286 286 285 287 290 287 299 307 304 296 297 297 301 298 297 299 302 303 303 302 303 303 305 306 315 292 304 321 329 341 360 13 16
290 292 292 290 289 295 308 314 314 290 289 292 294 292 295 302 308 311 304 297 297 302 311 315 316 319 314 311 315 297 277 280 293 299 311 321 308 332 333 339 354 3 11